Other Public Products
Issued by NWS Grand Forks, ND

Home | Current Version | Previous Version | Text Only | Print | Product List | Glossary Off
Versions: 1 2 3 4 5 6 7 8 9 10 11 12 13 14 15 16 17 18 19 20 21 22 23 24 25 26 27 28 29 30 31 32 33 34 35 36 37 38 39 40 41 42 43 44 45 46 47 48 49 50

759
FPUS83 KFGF 180531
OPUFGF
PRAIRIE TO PINES WEATHER ROUNDUP
NATIONAL WEATHER SERVICE EASTERN NORTH DAKOTA/GRAND FORKS ND
1200 AM CDT WED OCT 18 2017

 **SATELLITE DATA USED TO AUGMENT SKY COVER AT AUTOMATED STATIONS**
 *****  WEATHER ACROSS EASTERN NORTH DAKOTA  *****

CITY           SKY/WX    TMP DP  RH WIND       PRES   REMARKS
GRAND FORKS    FAIR      53  37  54 S12       29.58F
GRAND FORKS AF FAIR      61  33  35 SW14G21   29.58F
GRAND CITY NWS NOT AVBL
BUXTON           N/A     53  40  59 S9          N/A
DEVILS LAKE    FAIR      58  34  40 S18       29.55F
FARGO          FAIR      55  41  59 S12       29.67F
WAHPETON ARPT  NOT AVBL
$$

 *****  WEATHER ACROSS CENTRAL AND WESTERN NORTH DAKOTA  *****

CITY           SKY/WX    TMP DP  RH WIND       PRES   REMARKS
JAMESTOWN      FAIR      52  36  54 S8        29.64F
BISMARCK       FAIR      63  25  23 SW10      29.62F
MINOT          FAIR      65  26  23 SW16G24   29.48F
MINOT AFB      FAIR      65  26  23 SW21      29.45F
GARRISON         N/A     62  28  27 SW16      29.55F
WILLISTON      FAIR      60  27  28 SW12      29.49S
DICKINSON      FAIR      56  25  30 S15       29.61F
HETTINGER      FAIR      59  24  26 SW13      29.68F
$$

 *****  OTHER OBSERVATIONS NORTHEAST NORTH DAKOTA  *****

CITY           SKY/WX    TMP DP  RH WIND       PRES   REMARKS
WALHALLA       FAIR     N/A N/A N/A SW14G20   29.48F
LANGDON        FAIR      54  30  40 SW18      29.52S
CAVALIER       FAIR      54  34  47 S10       29.50F
GRAFTON        FAIR      52  34  50 S10       29.55F
CANDO          FAIR      54  28  37 S9        29.53F
FORT TOTTEN      N/A     58  28  31 S12       29.95S
ROLLA          FAIR      54  27  35 SW8       29.50F
RUGBY          FAIR      57  28  33 S14G21    29.50F
 ***** THE ABOVE OBSERVATIONS ARE NON NWS ARE NOT QUALITY
        CONTROLLED AND MAY MIS-REPORT RAIN FOR SNOW...
$$

 *****  OTHER OBSERVATIONS SOUTHEAST NORTH DAKOTA *****

CITY           SKY/WX    TMP DP  RH WIND       PRES   REMARKS
COOPERSTOWN    FAIR      57  36  44 S16       29.61F
VALLEY CITY    FAIR      57  39  51 SW18      29.66F
OAKES          NOT AVBL
GWINNER        CLEAR     55  41  58 SW9       29.70F
SHEYENNE NWR     N/A     55  41  59 SW7       29.95S
BUFFALO          N/A     58  35  41 SW13        N/A
WYNDMERE       NOT AVBL
 ***** THE ABOVE OBSERVATIONS ARE NON NWS ARE NOT QUALITY
       CONTROLLED AND MAY MIS-REPORT RAIN FOR SNOW...
$$

  *****  WEATHER ACROSS NORTHERN MINNESOTA  *****

CITY           SKY/WX    TMP DP  RH WIND       PRES   REMARKS
FLAG ISLAND    FAIR      52  46  82 S10       29.54F
WARROAD        FAIR      61  43  51 S8        29.56F
ROSEAU         FAIR      57  45  62 S15       29.56F
HALLOCK        FAIR      54  36  50 S14       29.52F
THF RVR FALLS  FAIR      61  39  44 S16G23    29.63F
HALSTAD          N/A     52  41  65 S13         N/A
FOSSTON        FAIR      57  37  47 S15       29.68S
BAUDETTE       FAIR      57  41  55 S12       29.62F
WASKISH        FAIR      59  41  51 S7        29.66F
CROOKSTON      FAIR      57  39  51 S15       29.62F
$$
  *****  WEATHER ACROSS CENTRAL AND WEST MINNESOTA  *****

CITY           SKY/WX    TMP DP  RH WIND       PRES   REMARKS
BEMIDJI        FAIR      56  39  53 S8        29.70F
PARK RAPIDS    FAIR      52  40  63 S9        29.75F
WADENA         FAIR      52  39  62 S7        29.76S
DETROIT LAKES  FAIR      61  41  48 SW10G16   29.73S
MOORHEAD       FAIR      52  43  71 S9        29.69F
FERGUS FALLS   FAIR      52  41  66 S9        29.75F
ELBOW LAKE     FAIR      52  41  66 S9        29.77F
MORRIS MN      FAIR      54  41  62 S13       29.77F
STAPLES        FAIR      54  37  54 S9        29.77F
WHEATON        FAIR      55  39  54 S12       29.76F
$$
  *****  WEATHER ELSEWHERE ACROSS MINNESOTA  *****

CITY           SKY/WX    TMP DP  RH WIND       PRES   REMARKS
DULUTH         FAIR      56  41  57 SW12      29.83F
INTRNTL FALLS  FAIR      58  37  45 S9        29.67F
ELY            FAIR      57  37  47 S13       29.78F
CLOQUET        FAIR      54  39  58 S3        29.82F
BRAINERD       FAIR      58  38  47 S12       29.80F
HIBBING        FAIR      52  38  58 S5        29.78F
ALEXANDRIA     FAIR      59  40  49 SW13      29.81F
SAINT CLOUD    FAIR      50  40  68 S7        29.85F
MINNEAPOLIS    FAIR      62  45  53 SW8       29.90S
$$

  *****  WEATHER ACROSS SOUTH DAKOTA  *****

CITY           SKY/WX    TMP DP  RH WIND       PRES   REMARKS
SIOUX FALLS    FAIR      57  46  66 S13       29.88F
BROOKINGS      FAIR      54  43  66 S10       29.86F
WATERTOWN      FAIR      51  41  68 S8        29.80F
HURON          FAIR      56  41  57 S13       29.77F
SISSETON         N/A     65  39  38 SW23G30   29.73F
ABERDEEN       FAIR      53  42  66 S13       29.73F
MITCHELL       FAIR      57  40  52 S15       29.82F
PIERRE         FAIR      47  37  68 CALM      29.73F
MOBRIDGE       FAIR      53  42  66 SE10      29.68F
RAPID CITY     FAIR      47  26  44 W3        29.80F
$$

  *****  SOME WEATHER IN NEARBY STATES *****

CITY           SKY/WX    TMP DP  RH WIND       PRES   REMARKS
GLASGOW MT     FAIR      67  24  19 W25G38    29.58R
GREAT FALLS MT FAIR      59  26  28 W29G48    29.77R
CHEYENNE WY    FAIR      55  14  19 SW12      30.09F
SCOTTSBLUFF NE FAIR      44  27  51 NE6       29.96F
OMAHA NE       FAIR      53  45  74 SE7       29.99F
DES MOINES IA  FAIR      54  46  74 S9        30.03F
DAVENPORT IA   FAIR      56  41  57 S12       30.13S
CHICAGO IL     FAIR      57  40  52 S10       30.14S
EAU CLAIRE WI  FAIR      51  46  83 S3        29.93F
LA CROSSE WI   FAIR      58  46  64 S8        30.00S
$$

  *****  SOME NATIONAL WEATHER *****

CITY           SKY/WX    TMP DP  RH WIND       PRES   REMARKS
LA GUARDIA NY  FAIR      54  38  54 SW8       30.28S
RALEIGH NC     FAIR      42  41  96 CALM      30.33F
ATLANTA GA     FAIR      52  44  74 E6        30.29F
NEW ORLEANS LA FAIR      69  60  73 NE8       30.16F
OKLAHOMA CITY  FAIR      51  45  79 S7        30.12S
ALBUQUERQUE NM FAIR      59  25  27 NE3       30.23R
SALT LAKE CITY FAIR      51  34  52 S3        30.14R
LOS ANGELES CA FAIR      73  57  57 SE7       29.91S
BOISE ID       FAIR      47  33  58 CALM      30.12R
SEATTLE WA     FAIR      52  40  63 E8        30.11F
$$

*** WEATHER ACROSS MANITOBA...SASKATCHEWAN AND ONTARIO ***
                ***ONTARIO***

CITY           SKY/WX    TMP DP  RH WIND       PRES   REMARKS
GERALDTON      MOCLDY    39  36  87 E5        29.85F
THUNDER BAY    CLEAR     41  41 100 VRB2      29.83F
SIOUX LOOKOUT  CLEAR     54  39  58 S7        29.62F
TORONTO        CLEAR     54  43  66 NW8       30.13S
BIG TROUT LK   MOCLDY    37  32  81 SE13      29.69F
PICKLE LAKE    NOT AVBL
DRYDEN         CLEAR     57  39  51 S14G21    29.61F
KENORA         CLEAR     57  41  54 S10       29.56
$$
                *** MANITOBA***

CITY           SKY/WX    TMP DP  RH WIND       PRES   REMARKS
BRANDON        MOCLDY    61  30  31 SW16      29.37F
DAUPHIN        CLEAR     64  30  27 SW21G28   29.21F
ISLAND LAKE    PTCLDY    43  36  75 SE21G32   29.37F
PILOT MOUND      N/A     50  32  50 S13         N/A
THE PAS        PTCLDY    48  39  71 SE16G22   28.94F
THOMPSON       CLOUDY    37  32  81 E7G17     29.25F
WINNIPEG       CLEAR     57  34  41 S18G24    29.43F
LYNN LAKE      LGT RAIN  34  34 100 E20G28    29.11F WCI  22
CHURCHILL      CLOUDY    27  23  86 SE13      29.67F WCI  16
GILLAM         LGTSLEET  32  30  93 E8G20     29.51F WCI  25
$$
                ***SASKATCHEWAN***

CITY           SKY/WX    TMP DP  RH WIND       PRES   REMARKS
ESTEVAN        PTCLDY    61  27  27 SW17G28   29.40S
KINDERSLEY     CLOUDY    45  30  57 W36G53    29.48R
LLOYDMINSTER   CLOUDY    41  34  75 W33G49    29.36R
PRINCE ALBERT  CLOUDY    55  45  67 NW35G55   28.91R
REGINA         CLEAR     61  32  33 W37G53    29.32
YORKTON        CLEAR     59  25  27 S17G23    29.17F



USA.gov is the U.S. government's official web portal to all federal, state and local government web resources and services.